Location: Newark
(53.6914°N, 19.9392°E)
Time: 12:14:21
(UTC+00:00)

N. Korean satellite - Visible Passes

Search period start: 29 September 2020 00:00
Search period end: 09 October 2020 00:00
Orbit: 455 x 503 km, 97.2° (Epoch: 28 September)

Date Brightness Start Highest point End Pass type
(mag) Time Alt. Az. Time Alt. Az. Time Alt. Az.
29 Sep 9.4 03:34:10 10° NE 03:37:08 23° E 03:40:03 10° SSE visible
30 Sep 10.0 03:09:05 10° ENE 03:10:50 13° E 03:12:34 10° ESE visible
02 Oct 8.7 03:49:09 10° NNE 03:52:27 32° E 03:55:41 10° SSE visible
03 Oct 9.7 03:23:39 10° NE 03:26:12 18° E 03:28:42 10° SE visible
04 Oct 10.8 16:47:47 10° W 16:48:38 11° W 16:49:30 10° WNW visible
05 Oct 7.8 04:04:11 10° NNE 04:07:41 46° E 04:11:05 10° S visible
06 Oct 9.2 03:38:27 10° NE 03:41:28 25° E 03:44:25 10° SSE visible
07 Oct 9.9 03:13:10 10° NE 03:15:08 14° E 03:17:04 10° ESE visible
08 Oct 7.0 04:19:15 10° NNE 04:22:49 69° ESE 04:26:19 10° S visible
08 Oct 10.3 16:35:40 10° WSW 16:37:33 13° W 16:39:27 10° WNW visible
